User: anonymous   Login
Location: Standeford and Andreas Observatories
(44.1397°N, 93.9969°W)
Time: 19:17:03
(UTC-05:00)
Language:

Cosmos 1500 Rocket - Orbit

View from above orbital plane
View from above orbital plane
View from above satellite
View from above satellite

Ground track
Ground track

The orbit data is extracted from the following two-line orbital elements,

1 14373U 83099B   15115.99425183  .00000682  00000-0  80059-4 0  9993
2 14373 082.5403 256.3361 0018932 292.4684 206.7801 14.83421672704751
Epoch (UTC): 25 April 2015 23:51:43
Eccentricity: 0.0018932
inclination: 82.5403°
perigee height: 605 km
apogee height: 632 km
right ascension of ascending node: 256.3361°
argument of perigee: 292.4684°
revolutions per day: 14.83421672
mean anomaly at epoch: 206.7801°
orbit number at epoch: 70475

The dashed part of the orbit path shows where the satellite is in the earth's shadow,  

DLR